Time,TemperatureF,DewpointF,PressureIn,WindDirection,WindDirectionDegrees,WindSpeedMPH,WindSpeedGustMPH,Humidity,HourlyPrecipIn,Conditions,Clouds,dailyrainin,SoftwareType,DateUTC
2013-10-26 00:14:00,39.0,27.0,30.16,SSE,153,3.0,8.0,63,0.00,,,0.01,,2013-10-26 04:14:00,
2013-10-26 00:24:00,39.0,27.0,30.16,SE,134,3.0,7.0,63,0.00,,,0.01,,2013-10-26 04:24:00,
2013-10-26 00:44:00,39.0,27.0,30.15,SSW,205,3.0,8.0,62,0.00,,,0.01,,2013-10-26 04:44:00,
2013-10-26 00:54:00,40.0,28.0,30.15,SW,217,4.0,11.0,61,0.00,,,0.01,,2013-10-26 04:54:00,
2013-10-26 01:13:00,40.0,27.0,30.14,SW,235,3.0,11.0,60,0.00,,,0.01,,2013-10-26 05:13:00,
2013-10-26 01:23:00,40.0,27.0,30.14,West,259,4.0,11.0,59,0.00,,,0.01,,2013-10-26 05:23:00,
2013-10-26 01:43:00,40.0,27.0,30.13,SW,224,3.0,8.0,59,0.00,,,0.01,,2013-10-26 05:43:00,
2013-10-26 01:52:00,40.0,26.0,30.12,West,263,4.0,8.0,58,0.00,,,0.01,,2013-10-26 05:52:00,
2013-10-26 02:12:00,41.0,27.0,30.11,West,277,6.0,13.0,58,0.00,,,0.01,,2013-10-26 06:12:00,
2013-10-26 02:22:00,40.0,26.0,30.11,SSE,168,4.0,9.0,57,0.00,,,0.01,,2013-10-26 06:22:00,
2013-10-26 02:42:00,40.0,27.0,30.10,SE,135,3.0,9.0,59,0.00,,,0.01,,2013-10-26 06:42:00,
2013-10-26 02:52:00,40.0,27.0,30.09,WSW,257,3.0,8.0,60,0.00,,,0.01,,2013-10-26 06:52:00,
2013-10-26 03:12:00,40.0,27.0,30.08,SSW,204,4.0,10.0,59,0.00,,,0.01,,2013-10-26 07:12:00,
2013-10-26 03:22:00,40.0,27.0,30.07,SSE,166,3.0,12.0,59,0.00,,,0.01,,2013-10-26 07:22:00,
2013-10-26 03:42:00,39.0,26.0,30.06,SSW,195,4.0,10.0,60,0.00,,,0.01,,2013-10-26 07:42:00,
2013-10-26 03:52:00,39.0,26.0,30.05,SW,222,3.0,10.0,60,0.00,,,0.01,,2013-10-26 07:52:00,
2013-10-26 04:12:00,39.0,26.0,30.04,SSE,149,3.0,9.0,60,0.00,,,0.01,,2013-10-26 08:12:00,
2013-10-26 04:22:00,40.0,27.0,30.04,South,177,4.0,9.0,59,0.00,,,0.01,,2013-10-26 08:22:00,
2013-10-26 04:42:00,40.0,27.0,30.03,SSW,212,4.0,12.0,59,0.00,,,0.01,,2013-10-26 08:42:00,
2013-10-26 04:52:00,40.0,26.0,30.02,South,186,4.0,14.0,58,0.00,,,0.01,,2013-10-26 08:52:00,
2013-10-26 05:11:00,40.0,26.0,30.01,SW,217,5.0,11.0,58,0.00,,,0.01,,2013-10-26 09:11:00,
2013-10-26 05:22:00,40.0,26.0,30.01,SSW,200,4.0,14.0,57,0.00,,,0.01,,2013-10-26 09:22:00,
2013-10-26 05:43:00,40.0,26.0,30.00,West,281,3.0,13.0,57,0.00,,,0.01,,2013-10-26 09:43:00,
2013-10-26 05:53:00,40.0,26.0,29.99,SSW,207,5.0,11.0,58,0.00,,,0.01,,2013-10-26 09:53:00,
2013-10-26 06:13:00,40.0,27.0,29.99,SSW,207,4.0,12.0,59,0.00,,,0.01,,2013-10-26 10:13:00,
2013-10-26 06:23:00,40.0,27.0,29.98,SSE,152,5.0,13.0,59,0.00,,,0.01,,2013-10-26 10:23:00,
2013-10-26 06:53:00,40.0,27.0,29.97,SSE,160,6.0,15.0,59,0.00,,,0.01,,2013-10-26 10:53:00,
2013-10-26 07:12:00,40.0,27.0,29.96,SSW,194,5.0,21.0,59,0.00,,,0.01,,2013-10-26 11:12:00,
2013-10-26 07:22:00,40.0,27.0,29.95,West,267,5.0,10.0,59,0.00,,,0.01,,2013-10-26 11:22:00,
2013-10-26 07:42:00,40.0,26.0,29.94,SE,129,7.0,17.0,58,0.00,,,0.01,,2013-10-26 11:42:00,
2013-10-26 07:52:00,40.0,27.0,29.93,SSW,209,4.0,14.0,59,0.00,,,0.01,,2013-10-26 11:52:00,
2013-10-26 08:12:00,40.0,27.0,29.92,SSW,210,6.0,11.0,59,0.00,,,0.01,,2013-10-26 12:12:00,
2013-10-26 08:22:00,40.0,27.0,29.92,WSW,258,3.0,12.0,60,0.00,,,0.01,,2013-10-26 12:22:00,
2013-10-26 08:42:00,40.0,27.0,29.91,SSW,198,6.0,13.0,59,0.00,,,0.01,,2013-10-26 12:42:00,
2013-10-26 08:52:00,40.0,27.0,29.90,WSW,239,5.0,14.0,60,0.00,,,0.01,,2013-10-26 12:52:00,
2013-10-26 09:11:00,40.0,27.0,29.91,SSE,167,4.0,11.0,60,0.00,,,0.01,,2013-10-26 13:11:00,
2013-10-26 09:22:00,40.0,27.0,29.91,South,191,4.0,11.0,60,0.00,,,0.01,,2013-10-26 13:22:00,
2013-10-26 09:42:00,40.0,27.0,29.90,SSW,208,7.0,13.0,60,0.00,,,0.01,,2013-10-26 13:42:00,
2013-10-26 09:52:00,40.0,27.0,29.90,SSE,148,5.0,10.0,60,0.00,,,0.01,,2013-10-26 13:52:00,
2013-10-26 10:11:00,41.0,28.0,29.90,SE,143,3.0,17.0,60,0.00,,,0.01,,2013-10-26 14:11:00,
2013-10-26 10:22:00,41.0,28.0,29.88,SW,228,6.0,14.0,59,0.00,,,0.01,,2013-10-26 14:22:00,
2013-10-26 10:42:00,41.0,28.0,29.87,South,186,2.0,10.0,59,0.00,,,0.01,,2013-10-26 14:42:00,
2013-10-26 10:52:00,42.0,28.0,29.87,West,260,4.0,10.0,58,0.00,,,0.01,,2013-10-26 14:52:00,
2013-10-26 11:12:00,42.0,28.0,29.87,WSW,240,2.0,10.0,58,0.00,,,0.01,,2013-10-26 15:12:00,
2013-10-26 11:23:00,43.0,29.0,29.86,SSW,198,6.0,17.0,57,0.00,,,0.01,,2013-10-26 15:23:00,
2013-10-26 11:44:00,43.0,29.0,29.86,SSW,198,6.0,17.0,57,0.00,,,0.01,,2013-10-26 15:44:00,
2013-10-26 11:55:00,43.0,29.0,29.86,SSW,207,6.0,17.0,57,0.00,,,0.01,,2013-10-26 15:55:00,
2013-10-26 12:14:00,43.0,29.0,29.86,South,180,5.0,12.0,58,0.00,,,0.01,,2013-10-26 16:14:00,
2013-10-26 12:24:00,43.0,29.0,29.86,SSE,157,4.0,13.0,58,0.00,,,0.01,,2013-10-26 16:24:00,
2013-10-26 12:44:00,44.0,30.0,29.86,SW,231,5.0,14.0,58,0.00,,,0.00,,2013-10-26 16:44:00,
2013-10-26 12:53:00,44.0,30.0,29.85,SW,228,7.0,19.0,58,0.00,,,0.00,,2013-10-26 16:53:00,
2013-10-26 13:13:00,44.0,31.0,29.85,SSW,198,6.0,18.0,60,0.00,,,0.00,,2013-10-26 17:13:00,
2013-10-26 13:23:00,43.0,31.0,29.85,West,264,5.0,12.0,63,0.00,,,0.00,,2013-10-26 17:23:00,
2013-10-26 13:43:00,44.0,32.0,29.85,WSW,256,3.0,10.0,62,0.00,,,0.00,,2013-10-26 17:43:00,
2013-10-26 13:52:00,44.0,31.0,29.83,SSE,148,4.0,11.0,61,0.00,,,0.00,,2013-10-26 17:52:00,
2013-10-26 14:12:00,45.0,32.0,29.84,WSW,242,3.0,11.0,60,0.00,,,0.00,,2013-10-26 18:12:00,
2013-10-26 14:22:00,46.0,32.0,29.83,WNW,293,7.0,14.0,58,0.00,,,0.00,,2013-10-26 18:22:00,
2013-10-26 14:42:00,47.0,33.0,29.83,SW,231,3.0,10.0,57,0.00,,,0.00,,2013-10-26 18:42:00,
2013-10-26 14:52:00,48.0,33.0,29.83,NW,304,6.0,14.0,56,0.00,,,0.00,,2013-10-26 18:52:00,
2013-10-26 15:12:00,47.0,33.0,29.82,WNW,290,4.0,11.0,58,0.00,,,0.00,,2013-10-26 19:12:00,
2013-10-26 15:22:00,48.0,34.0,29.83,SW,217,3.0,7.0,58,0.00,,,0.00,,2013-10-26 19:22:00,
2013-10-26 15:42:00,48.0,34.0,29.83,WNW,303,4.0,11.0,57,0.00,,,0.00,,2013-10-26 19:42:00,
2013-10-26 15:52:00,48.0,34.0,29.84,WSW,255,4.0,11.0,58,0.00,,,0.00,,2013-10-26 19:52:00,
2013-10-26 16:12:00,48.0,34.0,29.84,ESE,113,3.0,7.0,59,0.00,,,0.00,,2013-10-26 20:12:00,
2013-10-26 16:22:00,48.0,34.0,29.84,SSW,198,2.0,7.0,59,0.00,,,0.00,,2013-10-26 20:22:00,
2013-10-26 16:43:00,49.0,35.0,29.84,West,272,4.0,9.0,59,0.00,,,0.00,,2013-10-26 20:43:00,
2013-10-26 16:52:00,49.0,35.0,29.84,WSW,256,3.0,10.0,59,0.00,,,0.00,,2013-10-26 20:52:00,
2013-10-26 17:11:00,49.0,35.0,29.84,SW,218,3.0,6.0,59,0.00,,,0.00,,2013-10-26 21:11:00,
2013-10-26 17:22:00,49.0,36.0,29.84,South,174,2.0,8.0,60,0.00,,,0.00,,2013-10-26 21:22:00,
2013-10-26 17:43:00,49.0,36.0,29.85,WNW,290,3.0,7.0,60,0.00,,,0.00,,2013-10-26 21:43:00,
2013-10-26 17:54:00,50.0,36.0,29.85,ESE,122,3.0,10.0,58,0.00,,,0.00,,2013-10-26 21:54:00,
2013-10-26 18:14:00,50.0,37.0,29.85,SSW,203,2.0,7.0,60,0.00,,,0.00,,2013-10-26 22:14:00,
2013-10-26 18:24:00,49.0,36.0,29.85,South,186,1.0,6.0,61,0.00,,,0.00,,2013-10-26 22:24:00,
2013-10-26 18:43:00,49.0,37.0,29.86,WSW,248,3.0,8.0,62,0.00,,,0.00,,2013-10-26 22:43:00,
2013-10-26 18:53:00,49.0,37.0,29.88,NW,305,2.0,8.0,64,0.00,,,0.00,,2013-10-26 22:53:00,
2013-10-26 19:12:00,48.0,38.0,29.88,West,260,2.0,5.0,67,0.00,,,0.00,,2013-10-26 23:12:00,
2013-10-26 19:22:00,48.0,38.0,29.89,WSW,256,2.0,7.0,68,0.00,,,0.00,,2013-10-26 23:22:00,
2013-10-26 19:42:00,47.0,38.0,29.90,NW,309,2.0,6.0,70,0.00,,,0.00,,2013-10-26 23:42:00,
2013-10-26 19:52:00,46.0,37.0,29.91,WNW,285,1.0,4.0,72,0.00,,,0.00,,2013-10-26 23:52:00,
2013-10-26 20:12:00,46.0,38.0,29.92,West,259,1.0,3.0,74,0.00,,,0.00,,2013-10-27 00:12:00,
2013-10-26 20:22:00,45.0,37.0,29.93,WNW,295,0.0,4.0,74,0.00,,,0.00,,2013-10-27 00:22:00,
2013-10-26 20:42:00,45.0,38.0,29.93,WNW,292,0.0,4.0,76,0.00,,,0.00,,2013-10-27 00:42:00,
2013-10-26 20:52:00,44.0,38.0,29.95,West,279,0.0,1.0,78,0.00,,,0.00,,2013-10-27 00:52:00,
2013-10-26 21:12:00,43.0,37.0,29.95,NNW,328,0.0,3.0,79,0.00,,,0.00,,2013-10-27 01:12:00,
2013-10-26 21:22:00,41.0,36.0,29.96,NNW,328,0.0,1.0,82,0.00,,,0.00,,2013-10-27 01:22:00,
2013-10-26 21:42:00,41.0,37.0,29.96,WSW,250,0.0,1.0,85,0.00,,,0.00,,2013-10-27 01:42:00,
2013-10-26 21:52:00,40.0,34.0,29.96,NW,307,0.0,3.0,80,0.00,,,0.00,,2013-10-27 01:52:00,
2013-10-26 22:12:00,40.0,34.0,29.97,WNW,300,0.0,2.0,79,0.00,,,0.00,,2013-10-27 02:12:00,
2013-10-26 22:22:00,39.0,32.0,29.98,WNW,299,0.0,1.0,77,0.00,,,0.00,,2013-10-27 02:22:00,
2013-10-26 22:42:00,38.0,33.0,29.98,WNW,299,0.0,1.0,81,0.00,,,0.00,,2013-10-27 02:42:00,
2013-10-26 22:52:00,38.0,32.0,29.99,WSW,239,0.0,1.0,79,0.00,,,0.00,,2013-10-27 02:52:00,
2013-10-26 23:12:00,38.0,31.0,30.00,WNW,285,0.0,1.0,77,0.00,,,0.00,,2013-10-27 03:12:00,
2013-10-26 23:22:00,38.0,32.0,30.01,WNW,295,0.0,1.0,78,0.00,,,0.00,,2013-10-27 03:22:00,
2013-10-26 23:45:00,36.0,31.0,30.01,WNW,295,0.0,0.0,82,0.00,,,0.00,,2013-10-27 03:45:00,
2013-10-26 23:54:00,36.0,32.0,30.01,WNW,295,0.0,0.0,84,0.00,,,0.00,,2013-10-27 03:54:00,